owner,sensor,date,latitude,longitude,vertical_datum,wind_speed,wind_to_direction,wind_speed_of_gust,qcFlag 
TCOON,ioos:station:TCOON:057:1,2015-11-01T00:00:00Z,28.4460,-96.3961,0.0,9.3,329.0,11.2,'11111222,11111222,11111222' 
TCOON,ioos:station:TCOON:057:1,2015-11-01T00:06:00Z,28.4460,-96.3961,0.0,10.5,333.0,11.8,'11111222,11111222,11111222' 
TCOON,ioos:station:TCOON:057:1,2015-11-01T00:12:00Z,28.4460,-96.3961,0.0,10.5,333.0,11.8,'1111122,1111122,1111122' 
TCOON,ioos:station:TCOON:057:1,2015-11-01T00:18:00Z,28.4460,-96.3961,0.0,9.6,328.0,11.3,'11111222,11111222,11111222' 
TCOON,ioos:station:TCOON:057:1,2015-11-01T00:24:00Z,28.4460,-96.3961,0.0,9.1,331.0,11.0,'11111222,11111222,11111222' 
TCOON,ioos:station:TCOON:057:1,2015-11-01T00:30:00Z,28.4460,-96.3961,0.0,9.3,333.0,10.7,'11111222,11111222,11111222' 
TCOON,ioos:station:TCOON:057:1,2015-11-01T00:36:00Z,28.4460,-96.3961,0.0,8.9,332.0,10.3,'11111222,11111222,11111222' 
TCOON,ioos:station:TCOON:057:1,2015-11-01T00:42:00Z,28.4460,-96.3961,0.0,9.3,332.0,10.4,'11111222,11111222,11111222' 
TCOON,ioos:station:TCOON:057:1,2015-11-01T00:48:00Z,28.4460,-96.3961,0.0,8.4,334.0,9.9,'11111222,11111222,11111222' 
TCOON,ioos:station:TCOON:057:1,2015-11-01T00:54:00Z,28.4460,-96.3961,0.0,8.8,338.0,10.2,'11111222,11111222,11111222' 
TCOON,ioos:station:TCOON:057:1,2015-11-01T01:00:00Z,28.4460,-96.3961,0.0,8.4,337.0,10.0,'11111222,11111222,11111222' 
TCOON,ioos:station:TCOON:057:1,2015-11-01T01:06:00Z,28.4460,-96.3961,0.0,8.9,342.0,10.0,'11111222,11111222,11111222' 
TCOON,ioos:station:TCOON:057:1,2015-11-01T01:12:00Z,28.4460,-96.3961,0.0,8.9,342.0,10.0,'1111122,1111122,1111122' 
TCOON,ioos:station:TCOON:057:1,2015-11-01T01:18:00Z,28.4460,-96.3961,0.0,8.4,332.0,9.7,'11111222,11111222,11111222' 
TCOON,ioos:station:TCOON:057:1,2015-11-01T01:24:00Z,28.4460,-96.3961,0.0,8.2,332.0,9.8,'11111222,11111222,11111222' 
TCOON,ioos:station:TCOON:057:1,2015-11-01T01:30:00Z,28.4460,-96.3961,0.0,8.2,331.0,9.4,'11111222,11111222,11111222' 
TCOON,ioos:station:TCOON:057:1,2015-11-01T01:36:00Z,28.4460,-96.3961,0.0,8.4,332.0,10.3,'11111222,11111222,11111222' 
TCOON,ioos:station:TCOON:057:1,2015-11-01T01:42:00Z,28.4460,-96.3961,0.0,8.4,333.0,9.8,'11111222,11111222,11111222' 
TCOON,ioos:station:TCOON:057:1,2015-11-01T01:48:00Z,28.4460,-96.3961,0.0,8.8,334.0,10.4,'11111222,11111222,11111222' 
TCOON,ioos:station:TCOON:057:1,2015-11-01T01:54:00Z,28.4460,-96.3961,0.0,9.1,341.0,11.1,'11111222,11111222,11111222' 
TCOON,ioos:station:TCOON:057:1,2015-11-01T02:00:00Z,28.4460,-96.3961,0.0,8.9,345.0,10.2,'11111222,11111222,11111222' 
TCOON,ioos:station:TCOON:057:1,2015-11-01T02:06:00Z,28.4460,-96.3961,0.0,9.1,340.0,10.2,'11111222,11111222,11111222' 
TCOON,ioos:station:TCOON:057:1,2015-11-01T02:12:00Z,28.4460,-96.3961,0.0,9.1,341.0,10.5,'11111222,11111222,11111222' 
TCOON,ioos:station:TCOON:057:1,2015-11-01T02:18:00Z,28.4460,-96.3961,0.0,9.1,341.0,10.5,'1111122,1111122,1111122' 
TCOON,ioos:station:TCOON:057:1,2015-11-01T02:24:00Z,28.4460,-96.3961,0.0,8.8,339.0,9.5,'11111222,11111222,11111222' 
TCOON,ioos:station:TCOON:057:1,2015-11-01T02:30:00Z,28.4460,-96.3961,0.0,8.7,342.0,9.9,'11111222,11111222,11111222' 
TCOON,ioos:station:TCOON:057:1,2015-11-01T02:36:00Z,28.4460,-96.3961,0.0,8.0,342.0,9.9,'11111222,11111222,11111222' 
TCOON,ioos:station:TCOON:057:1,2015-11-01T02:42:00Z,28.4460,-96.3961,0.0,8.4,345.0,9.8,'11111222,11111222,11111222' 
TCOON,ioos:station:TCOON:057:1,2015-11-01T02:48:00Z,28.4460,-96.3961,0.0,8.1,339.0,9.7,'11111222,11111222,11111222' 
TCOON,ioos:station:TCOON:057:1,2015-11-01T02:54:00Z,28.4460,-96.3961,0.0,8.4,337.0,9.4,'11111222,11111222,11111222' 
TCOON,ioos:station:TCOON:057:1,2015-11-01T03:00:00Z,28.4460,-96.3961,0.0,7.7,342.0,9.4,'11111222,11111222,11111222' 
TCOON,ioos:station:TCOON:057:1,2015-11-01T03:06:00Z,28.4460,-96.3961,0.0,7.7,333.0,9.5,'11111222,11111222,11111222' 
TCOON,ioos:station:TCOON:057:1,2015-11-01T03:12:00Z,28.4460,-96.3961,0.0,7.7,333.0,9.5,'1111122,1111122,1111122' 
TCOON,ioos:station:TCOON:057:1,2015-11-01T03:18:00Z,28.4460,-96.3961,0.0,7.5,344.0,9.1,'11111222,11111222,11111222' 
TCOON,ioos:station:TCOON:057:1,2015-11-01T03:24:00Z,28.4460,-96.3961,0.0,7.2,340.0,8.3,'11111222,11111222,11111222' 
TCOON,ioos:station:TCOON:057:1,2015-11-01T03:30:00Z,28.4460,-96.3961,0.0,7.7,348.0,8.8,'11111222,11111222,11111222' 
TCOON,ioos:station:TCOON:057:1,2015-11-01T03:36:00Z,28.4460,-96.3961,0.0,7.6,342.0,8.9,'11111222,11111222,11111222' 
TCOON,ioos:station:TCOON:057:1,2015-11-01T03:42:00Z,28.4460,-96.3961,0.0,7.3,345.0,8.6,'11111222,11111222,11111222' 
TCOON,ioos:station:TCOON:057:1,2015-11-01T03:48:00Z,28.4460,-96.3961,0.0,7.8,340.0,8.8,'11111222,11111222,11111222' 
TCOON,ioos:station:TCOON:057:1,2015-11-01T03:54:00Z,28.4460,-96.3961,0.0,7.7,348.0,8.3,'11111222,11111222,11111222' 
TCOON,ioos:station:TCOON:057:1,2015-11-01T04:00:00Z,28.4460,-96.3961,0.0,7.4,356.0,8.4,'11111222,11111222,11111222' 
TCOON,ioos:station:TCOON:057:1,2015-11-01T04:06:00Z,28.4460,-96.3961,0.0,7.2,348.0,8.6,'11111222,11111222,11111222' 
TCOON,ioos:station:TCOON:057:1,2015-11-01T04:12:00Z,28.4460,-96.3961,0.0,7.2,348.0,8.6,'1111122,1111122,1111122' 
TCOON,ioos:station:TCOON:057:1,2015-11-01T04:18:00Z,28.4460,-96.3961,0.0,7.0,346.0,8.3,'11111222,11111222,11111222' 
TCOON,ioos:station:TCOON:057:1,2015-11-01T04:24:00Z,28.4460,-96.3961,0.0,7.1,353.0,8.4,'11111222,11111222,11111222' 
TCOON,ioos:station:TCOON:057:1,2015-11-01T04:30:00Z,28.4460,-96.3961,0.0,7.8,353.0,8.8,'11111222,11111222,11111222' 
TCOON,ioos:station:TCOON:057:1,2015-11-01T04:36:00Z,28.4460,-96.3961,0.0,7.6,352.0,8.5,'11111222,11111222,11111222' 
TCOON,ioos:station:TCOON:057:1,2015-11-01T04:42:00Z,28.4460,-96.3961,0.0,7.6,353.0,8.7,'11111222,11111222,11111222' 
TCOON,ioos:station:TCOON:057:1,2015-11-01T04:48:00Z,28.4460,-96.3961,0.0,8.4,354.0,9.0,'11111222,11111222,11111222' 
TCOON,ioos:station:TCOON:057:1,2015-11-01T04:54:00Z,28.4460,-96.3961,0.0,7.0,355.0,8.5,'11111222,11111222,11111222' 
TCOON,ioos:station:TCOON:057:1,2015-11-01T05:00:00Z,28.4460,-96.3961,0.0,7.8,346.0,8.6,'11111222,11111222,11111222' 
TCOON,ioos:station:TCOON:057:1,2015-11-01T05:06:00Z,28.4460,-96.3961,0.0,7.9,351.0,8.8,'11111222,11111222,11111222' 
TCOON,ioos:station:TCOON:057:1,2015-11-01T05:12:00Z,28.4460,-96.3961,0.0,7.9,351.0,8.8,'1111122,1111122,1111122' 
TCOON,ioos:station:TCOON:057:1,2015-11-01T05:18:00Z,28.4460,-96.3961,0.0,7.6,1.0,8.7,'11111222,11111222,11111222' 
TCOON,ioos:station:TCOON:057:1,2015-11-01T05:24:00Z,28.4460,-96.3961,0.0,6.9,358.0,8.9,'11111222,11111222,11111222' 
TCOON,ioos:station:TCOON:057:1,2015-11-01T05:30:00Z,28.4460,-96.3961,0.0,7.7,359.0,8.9,'11111222,11111222,11111222' 
TCOON,ioos:station:TCOON:057:1,2015-11-01T05:36:00Z,28.4460,-96.3961,0.0,6.8,0.0,8.0,'11111222,11111222,11111222' 
TCOON,ioos:station:TCOON:057:1,2015-11-01T05:42:00Z,28.4460,-96.3961,0.0,7.0,2.0,8.4,'11111222,11111222,11111222' 
TCOON,ioos:station:TCOON:057:1,2015-11-01T05:48:00Z,28.4460,-96.3961,0.0,7.0,6.0,8.4,'11111222,11111222,11111222' 
TCOON,ioos:station:TCOON:057:1,2015-11-01T05:54:00Z,28.4460,-96.3961,0.0,7.1,6.0,8.0,'11111222,11111222,11111222' 
TCOON,ioos:station:TCOON:057:1,2015-11-01T06:00:00Z,28.4460,-96.3961,0.0,6.4,5.0,7.9,'11111222,11111222,11111222' 
TCOON,ioos:station:TCOON:057:1,2015-11-01T06:06:00Z,28.4460,-96.3961,0.0,6.0,5.0,8.0,'11111222,11111222,11111222' 
TCOON,ioos:station:TCOON:057:1,2015-11-01T06:12:00Z,28.4460,-96.3961,0.0,6.4,350.0,7.3,'11111222,11111222,11111222' 
TCOON,ioos:station:TCOON:057:1,2015-11-01T06:18:00Z,28.4460,-96.3961,0.0,6.4,350.0,7.3,'1111122,1111122,1111122' 
TCOON,ioos:station:TCOON:057:1,2015-11-01T06:24:00Z,28.4460,-96.3961,0.0,6.9,4.0,8.0,'11111222,11111222,11111222' 
TCOON,ioos:station:TCOON:057:1,2015-11-01T06:30:00Z,28.4460,-96.3961,0.0,6.0,8.0,7.1,'11111222,11111222,11111222' 
TCOON,ioos:station:TCOON:057:1,2015-11-01T06:36:00Z,28.4460,-96.3961,0.0,6.8,5.0,7.9,'11111222,11111222,11111222' 
TCOON,ioos:station:TCOON:057:1,2015-11-01T06:42:00Z,28.4460,-96.3961,0.0,6.8,359.0,8.1,'11111222,11111222,11111222' 
TCOON,ioos:station:TCOON:057:1,2015-11-01T06:48:00Z,28.4460,-96.3961,0.0,5.9,352.0,7.4,'11111222,11111222,11111222' 
TCOON,ioos:station:TCOON:057:1,2015-11-01T06:54:00Z,28.4460,-96.3961,0.0,5.9,345.0,6.8,'11111222,11111222,11111222' 
TCOON,ioos:station:TCOON:057:1,2015-11-01T07:00:00Z,28.4460,-96.3961,0.0,5.6,347.0,6.6,'11111222,11111222,11111222' 
TCOON,ioos:station:TCOON:057:1,2015-11-01T07:06:00Z,28.4460,-96.3961,0.0,5.3,345.0,6.4,'11111222,11111222,11111222' 
TCOON,ioos:station:TCOON:057:1,2015-11-01T07:12:00Z,28.4460,-96.3961,0.0,5.3,345.0,6.4,'1111122,1111122,1111122' 
TCOON,ioos:station:TCOON:057:1,2015-11-01T07:18:00Z,28.4460,-96.3961,0.0,5.7,3.0,6.9,'11111222,11111222,11111222' 
TCOON,ioos:station:TCOON:057:1,2015-11-01T07:24:00Z,28.4460,-96.3961,0.0,6.9,1.0,7.8,'11111222,11111222,11111222' 
TCOON,ioos:station:TCOON:057:1,2015-11-01T07:30:00Z,28.4460,-96.3961,0.0,6.4,12.0,7.2,'11111222,11111222,11111222' 
TCOON,ioos:station:TCOON:057:1,2015-11-01T07:36:00Z,28.4460,-96.3961,0.0,6.4,8.0,8.0,'11111222,11111222,11111222' 
TCOON,ioos:station:TCOON:057:1,2015-11-01T07:42:00Z,28.4460,-96.3961,0.0,6.1,345.0,7.5,'11111222,11111222,11111222' 
TCOON,ioos:station:TCOON:057:1,2015-11-01T07:48:00Z,28.4460,-96.3961,0.0,6.2,332.0,7.4,'11111222,11111222,11111222' 
TCOON,ioos:station:TCOON:057:1,2015-11-01T07:54:00Z,28.4460,-96.3961,0.0,5.7,317.0,7.2,'11111222,11111222,11111222' 
TCOON,ioos:station:TCOON:057:1,2015-11-01T08:00:00Z,28.4460,-96.3961,0.0,5.0,309.0,5.9,'11111222,11111222,11111222' 
TCOON,ioos:station:TCOON:057:1,2015-11-01T08:06:00Z,28.4460,-96.3961,0.0,5.6,330.0,6.3,'11111222,11111222,11111222' 
TCOON,ioos:station:TCOON:057:1,2015-11-01T08:12:00Z,28.4460,-96.3961,0.0,5.6,330.0,6.3,'1111122,1111122,1111122' 
TCOON,ioos:station:TCOON:057:1,2015-11-01T08:18:00Z,28.4460,-96.3961,0.0,6.2,331.0,6.9,'11111222,11111222,11111222' 
TCOON,ioos:station:TCOON:057:1,2015-11-01T08:24:00Z,28.4460,-96.3961,0.0,7.0,331.0,7.7,'11111222,11111222,11111222' 
TCOON,ioos:station:TCOON:057:1,2015-11-01T08:30:00Z,28.4460,-96.3961,0.0,6.7,332.0,8.1,'11111222,11111222,11111222' 
TCOON,ioos:station:TCOON:057:1,2015-11-01T08:36:00Z,28.4460,-96.3961,0.0,6.9,337.0,8.0,'11111222,11111222,11111222' 
TCOON,ioos:station:TCOON:057:1,2015-11-01T08:42:00Z,28.4460,-96.3961,0.0,8.2,335.0,9.0,'11111222,11111222,11111222' 
TCOON,ioos:station:TCOON:057:1,2015-11-01T08:48:00Z,28.4460,-96.3961,0.0,7.7,342.0,9.2,'11111222,11111222,11111222' 
TCOON,ioos:station:TCOON:057:1,2015-11-01T08:54:00Z,28.4460,-96.3961,0.0,8.3,334.0,9.8,'11111222,11111222,11111222' 
TCOON,ioos:station:TCOON:057:1,2015-11-01T09:00:00Z,28.4460,-96.3961,0.0,7.6,336.0,9.4,'11111222,11111222,11111222' 
TCOON,ioos:station:TCOON:057:1,2015-11-01T09:06:00Z,28.4460,-96.3961,0.0,6.4,342.0,8.6,'11111222,11111222,11111222' 
TCOON,ioos:station:TCOON:057:1,2015-11-01T09:12:00Z,28.4460,-96.3961,0.0,6.4,342.0,8.6,'1111122,1111122,1111122' 
TCOON,ioos:station:TCOON:057:1,2015-11-01T09:18:00Z,28.4460,-96.3961,0.0,7.6,3.0,8.4,'11111222,11111222,11111222' 
TCOON,ioos:station:TCOON:057:1,2015-11-01T09:24:00Z,28.4460,-96.3961,0.0,8.1,9.0,9.1,'11111222,11111222,11111222' 
TCOON,ioos:station:TCOON:057:1,2015-11-01T09:30:00Z,28.4460,-96.3961,0.0,8.4,9.0,9.2,'11111222,11111222,11111222' 
TCOON,ioos:station:TCOON:057:1,2015-11-01T09:36:00Z,28.4460,-96.3961,0.0,7.6,7.0,9.5,'11111222,11111222,11111222' 
TCOON,ioos:station:TCOON:057:1,2015-11-01T09:42:00Z,28.4460,-96.3961,0.0,8.4,9.0,9.4,'11111222,11111222,11111222' 
TCOON,ioos:station:TCOON:057:1,2015-11-01T09:48:00Z,28.4460,-96.3961,0.0,8.9,13.0,9.5,'11111222,11111222,11111222' 
TCOON,ioos:station:TCOON:057:1,2015-11-01T09:54:00Z,28.4460,-96.3961,0.0,7.4,18.0,9.5,'11111222,11111222,11111222' 
TCOON,ioos:station:TCOON:057:1,2015-11-01T10:00:00Z,28.4460,-96.3961,0.0,7.9,16.0,8.7,'11111222,11111222,11111222' 
TCOON,ioos:station:TCOON:057:1,2015-11-01T10:06:00Z,28.4460,-96.3961,0.0,7.9,21.0,9.0,'11111222,11111222,11111222' 
TCOON,ioos:station:TCOON:057:1,2015-11-01T10:12:00Z,28.4460,-96.3961,0.0,7.9,21.0,9.0,'1111122,1111122,1111122' 
TCOON,ioos:station:TCOON:057:1,2015-11-01T10:18:00Z,28.4460,-96.3961,0.0,7.7,20.0,9.2,'11111222,11111222,11111222' 
TCOON,ioos:station:TCOON:057:1,2015-11-01T10:24:00Z,28.4460,-96.3961,0.0,7.6,25.0,9.6,'11111222,11111222,11111222' 
TCOON,ioos:station:TCOON:057:1,2015-11-01T10:30:00Z,28.4460,-96.3961,0.0,9.2,32.0,10.3,'11111222,11111222,11111222' 
TCOON,ioos:station:TCOON:057:1,2015-11-01T10:36:00Z,28.4460,-96.3961,0.0,9.4,33.0,10.6,'11111222,11111222,11111222' 
TCOON,ioos:station:TCOON:057:1,2015-11-01T10:42:00Z,28.4460,-96.3961,0.0,8.5,27.0,9.9,'11111222,11111222,11111222' 
TCOON,ioos:station:TCOON:057:1,2015-11-01T10:48:00Z,28.4460,-96.3961,0.0,8.4,22.0,9.4,'11111222,11111222,11111222' 
TCOON,ioos:station:TCOON:057:1,2015-11-01T10:54:00Z,28.4460,-96.3961,0.0,7.7,21.0,9.7,'11111222,11111222,11111222' 
TCOON,ioos:station:TCOON:057:1,2015-11-01T11:00:00Z,28.4460,-96.3961,0.0,8.0,27.0,9.3,'11111222,11111222,11111222' 
TCOON,ioos:station:TCOON:057:1,2015-11-01T11:06:00Z,28.4460,-96.3961,0.0,6.5,23.0,8.4,'11111222,11111222,11111222' 
TCOON,ioos:station:TCOON:057:1,2015-11-01T11:12:00Z,28.4460,-96.3961,0.0,5.2,12.0,7.2,'11111222,11111222,11111222' 
TCOON,ioos:station:TCOON:057:1,2015-11-01T11:18:00Z,28.4460,-96.3961,0.0,5.2,12.0,7.2,'1111122,1111122,1111122' 
TCOON,ioos:station:TCOON:057:1,2015-11-01T11:24:00Z,28.4460,-96.3961,0.0,4.8,338.0,5.9,'11111222,11111222,11111222' 
TCOON,ioos:station:TCOON:057:1,2015-11-01T11:30:00Z,28.4460,-96.3961,0.0,5.2,331.0,5.7,'11111222,11111222,11111222' 
TCOON,ioos:station:TCOON:057:1,2015-11-01T11:36:00Z,28.4460,-96.3961,0.0,4.2,327.0,5.9,'11111222,11111222,11111222' 
TCOON,ioos:station:TCOON:057:1,2015-11-01T11:42:00Z,28.4460,-96.3961,0.0,5.5,306.0,6.4,'11111222,11111222,11111222' 
TCOON,ioos:station:TCOON:057:1,2015-11-01T11:48:00Z,28.4460,-96.3961,0.0,4.1,282.0,5.8,'11111222,11111222,11111222' 
TCOON,ioos:station:TCOON:057:1,2015-11-01T11:54:00Z,28.4460,-96.3961,0.0,3.0,283.0,5.7,'11111222,11111222,11111222' 
TCOON,ioos:station:TCOON:057:1,2015-11-01T12:00:00Z,28.4460,-96.3961,0.0,5.1,272.0,6.2,'11111222,11111222,11111222' 
TCOON,ioos:station:TCOON:057:1,2015-11-01T12:06:00Z,28.4460,-96.3961,0.0,5.7,277.0,6.8,'11111222,11111222,11111222' 
TCOON,ioos:station:TCOON:057:1,2015-11-01T12:12:00Z,28.4460,-96.3961,0.0,5.7,277.0,6.8,'1111122,1111122,1111122' 
TCOON,ioos:station:TCOON:057:1,2015-11-01T12:18:00Z,28.4460,-96.3961,0.0,5.3,287.0,6.7,'11111222,11111222,11111222' 
TCOON,ioos:station:TCOON:057:1,2015-11-01T12:24:00Z,28.4460,-96.3961,0.0,3.5,294.0,6.1,'11111222,11111222,11111222' 
TCOON,ioos:station:TCOON:057:1,2015-11-01T12:30:00Z,28.4460,-96.3961,0.0,3.8,300.0,4.9,'11111222,11111222,11111222' 
TCOON,ioos:station:TCOON:057:1,2015-11-01T12:36:00Z,28.4460,-96.3961,0.0,3.9,299.0,5.2,'11111222,11111222,11111222' 
TCOON,ioos:station:TCOON:057:1,2015-11-01T12:42:00Z,28.4460,-96.3961,0.0,4.6,305.0,5.2,'11111222,11111222,11111222' 
TCOON,ioos:station:TCOON:057:1,2015-11-01T12:48:00Z,28.4460,-96.3961,0.0,3.1,300.0,4.6,'11111222,11111222,11111222' 
TCOON,ioos:station:TCOON:057:1,2015-11-01T12:54:00Z,28.4460,-96.3961,0.0,4.0,333.0,4.6,'11111222,11111222,11111222' 
TCOON,ioos:station:TCOON:057:1,2015-11-01T13:00:00Z,28.4460,-96.3961,0.0,4.6,335.0,5.2,'11111222,11111222,11111222' 
TCOON,ioos:station:TCOON:057:1,2015-11-01T13:06:00Z,28.4460,-96.3961,0.0,4.5,333.0,5.0,'11111222,11111222,11111222' 
TCOON,ioos:station:TCOON:057:1,2015-11-01T13:12:00Z,28.4460,-96.3961,0.0,4.5,333.0,5.0,'1111122,1111122,1111122' 
TCOON,ioos:station:TCOON:057:1,2015-11-01T13:18:00Z,28.4460,-96.3961,0.0,3.9,289.0,4.8,'11111222,11111222,11111222' 
TCOON,ioos:station:TCOON:057:1,2015-11-01T13:24:00Z,28.4460,-96.3961,0.0,4.3,300.0,4.9,'11111222,11111222,11111222' 
TCOON,ioos:station:TCOON:057:1,2015-11-01T13:30:00Z,28.4460,-96.3961,0.0,3.9,290.0,4.8,'11111222,11111222,11111222' 
TCOON,ioos:station:TCOON:057:1,2015-11-01T13:36:00Z,28.4460,-96.3961,0.0,3.8,295.0,4.6,'11111222,11111222,11111222' 
TCOON,ioos:station:TCOON:057:1,2015-11-01T13:42:00Z,28.4460,-96.3961,0.0,4.6,291.0,5.6,'11111222,11111222,11111222' 
TCOON,ioos:station:TCOON:057:1,2015-11-01T13:48:00Z,28.4460,-96.3961,0.0,4.6,294.0,5.3,'11111222,11111222,11111222' 
TCOON,ioos:station:TCOON:057:1,2015-11-01T13:54:00Z,28.4460,-96.3961,0.0,4.2,303.0,5.6,'11111222,11111222,11111222' 
TCOON,ioos:station:TCOON:057:1,2015-11-01T14:00:00Z,28.4460,-96.3961,0.0,5.3,301.0,6.2,'11111222,11111222,11111222' 
TCOON,ioos:station:TCOON:057:1,2015-11-01T14:06:00Z,28.4460,-96.3961,0.0,6.6,316.0,7.5,'11111222,11111222,11111222' 
TCOON,ioos:station:TCOON:057:1,2015-11-01T14:12:00Z,28.4460,-96.3961,0.0,6.6,316.0,7.5,'1111122,1111122,1111122' 
TCOON,ioos:station:TCOON:057:1,2015-11-01T14:18:00Z,28.4460,-96.3961,0.0,6.4,318.0,7.0,'11111222,11111222,11111222' 
TCOON,ioos:station:TCOON:057:1,2015-11-01T14:24:00Z,28.4460,-96.3961,0.0,6.5,323.0,7.1,'11111222,11111222,11111222' 
TCOON,ioos:station:TCOON:057:1,2015-11-01T14:30:00Z,28.4460,-96.3961,0.0,6.7,318.0,7.4,'11111222,11111222,11111222' 
TCOON,ioos:station:TCOON:057:1,2015-11-01T14:36:00Z,28.4460,-96.3961,0.0,6.8,318.0,7.8,'11111222,11111222,11111222' 
TCOON,ioos:station:TCOON:057:1,2015-11-01T14:42:00Z,28.4460,-96.3961,0.0,6.5,319.0,7.9,'11111222,11111222,11111222' 
TCOON,ioos:station:TCOON:057:1,2015-11-01T14:48:00Z,28.4460,-96.3961,0.0,6.4,320.0,7.4,'11111222,11111222,11111222' 
TCOON,ioos:station:TCOON:057:1,2015-11-01T14:54:00Z,28.4460,-96.3961,0.0,5.8,318.0,6.8,'11111222,11111222,11111222' 
TCOON,ioos:station:TCOON:057:1,2015-11-01T15:00:00Z,28.4460,-96.3961,0.0,6.1,315.0,6.7,'11111222,11111222,11111222' 
TCOON,ioos:station:TCOON:057:1,2015-11-01T15:06:00Z,28.4460,-96.3961,0.0,6.4,315.0,7.5,'11111222,11111222,11111222' 
TCOON,ioos:station:TCOON:057:1,2015-11-01T15:12:00Z,28.4460,-96.3961,0.0,6.4,315.0,7.5,'1111122,1111122,1111122' 
TCOON,ioos:station:TCOON:057:1,2015-11-01T15:18:00Z,28.4460,-96.3961,0.0,7.1,311.0,7.9,'11111222,11111222,11111222' 
TCOON,ioos:station:TCOON:057:1,2015-11-01T15:24:00Z,28.4460,-96.3961,0.0,8.0,306.0,8.7,'11111222,11111222,11111222' 
TCOON,ioos:station:TCOON:057:1,2015-11-01T15:30:00Z,28.4460,-96.3961,0.0,6.9,305.0,8.4,'11111222,11111222,11111222' 
TCOON,ioos:station:TCOON:057:1,2015-11-01T15:36:00Z,28.4460,-96.3961,0.0,6.9,310.0,8.2,'11111222,11111222,11111222' 
TCOON,ioos:station:TCOON:057:1,2015-11-01T15:42:00Z,28.4460,-96.3961,0.0,6.3,313.0,7.5,'11111222,11111222,11111222' 
TCOON,ioos:station:TCOON:057:1,2015-11-01T15:48:00Z,28.4460,-96.3961,0.0,6.8,310.0,7.6,'11111222,11111222,11111222' 
TCOON,ioos:station:TCOON:057:1,2015-11-01T15:54:00Z,28.4460,-96.3961,0.0,6.7,312.0,7.7,'11111222,11111222,11111222' 
TCOON,ioos:station:TCOON:057:1,2015-11-01T16:00:00Z,28.4460,-96.3961,0.0,7.2,312.0,8.0,'11111222,11111222,11111222' 
TCOON,ioos:station:TCOON:057:1,2015-11-01T16:06:00Z,28.4460,-96.3961,0.0,6.5,309.0,7.8,'11111222,11111222,11111222' 
TCOON,ioos:station:TCOON:057:1,2015-11-01T16:12:00Z,28.4460,-96.3961,0.0,6.5,309.0,7.8,'1111122,1111122,1111122' 
TCOON,ioos:station:TCOON:057:1,2015-11-01T16:18:00Z,28.4460,-96.3961,0.0,6.2,309.0,7.2,'11111222,11111222,11111222' 
TCOON,ioos:station:TCOON:057:1,2015-11-01T16:24:00Z,28.4460,-96.3961,0.0,6.2,310.0,6.9,'11111222,11111222,11111222' 
TCOON,ioos:station:TCOON:057:1,2015-11-01T16:30:00Z,28.4460,-96.3961,0.0,6.0,318.0,6.7,'11111222,11111222,11111222' 
TCOON,ioos:station:TCOON:057:1,2015-11-01T16:36:00Z,28.4460,-96.3961,0.0,4.8,319.0,6.6,'11111222,11111222,11111222' 
TCOON,ioos:station:TCOON:057:1,2015-11-01T16:42:00Z,28.4460,-96.3961,0.0,5.3,323.0,5.8,'11111222,11111222,11111222' 
TCOON,ioos:station:TCOON:057:1,2015-11-01T16:48:00Z,28.4460,-96.3961,0.0,5.1,322.0,6.0,'11111222,11111222,11111222' 
TCOON,ioos:station:TCOON:057:1,2015-11-01T16:54:00Z,28.4460,-96.3961,0.0,4.8,320.0,5.7,'11111222,11111222,11111222' 
TCOON,ioos:station:TCOON:057:1,2015-11-01T17:00:00Z,28.4460,-96.3961,0.0,4.9,312.0,5.6,'11111222,11111222,11111222' 
TCOON,ioos:station:TCOON:057:1,2015-11-01T17:06:00Z,28.4460,-96.3961,0.0,4.7,310.0,5.3,'11111222,11111222,11111222' 
TCOON,ioos:station:TCOON:057:1,2015-11-01T17:12:00Z,28.4460,-96.3961,0.0,4.7,310.0,5.3,'1111122,1111122,1111122' 
TCOON,ioos:station:TCOON:057:1,2015-11-01T17:18:00Z,28.4460,-96.3961,0.0,5.0,311.0,5.5,'11111222,11111222,11111222' 
TCOON,ioos:station:TCOON:057:1,2015-11-01T17:24:00Z,28.4460,-96.3961,0.0,5.2,321.0,5.7,'11111222,11111222,11111222' 
TCOON,ioos:station:TCOON:057:1,2015-11-01T17:30:00Z,28.4460,-96.3961,0.0,5.9,323.0,6.4,'11111222,11111222,11111222' 
TCOON,ioos:station:TCOON:057:1,2015-11-01T17:36:00Z,28.4460,-96.3961,0.0,5.5,321.0,5.8,'11111222,11111222,11111222' 
TCOON,ioos:station:TCOON:057:1,2015-11-01T17:42:00Z,28.4460,-96.3961,0.0,5.4,319.0,6.4,'11111222,11111222,11111222' 
TCOON,ioos:station:TCOON:057:1,2015-11-01T17:48:00Z,28.4460,-96.3961,0.0,5.8,317.0,6.6,'11111222,11111222,11111222' 
TCOON,ioos:station:TCOON:057:1,2015-11-01T17:54:00Z,28.4460,-96.3961,0.0,5.7,320.0,6.4,'11111222,11111222,11111222' 
TCOON,ioos:station:TCOON:057:1,2015-11-01T18:00:00Z,28.4460,-96.3961,0.0,5.7,316.0,6.3,'11111222,11111222,11111222' 
TCOON,ioos:station:TCOON:057:1,2015-11-01T18:06:00Z,28.4460,-96.3961,0.0,5.9,318.0,6.6,'11111222,11111222,11111222' 
TCOON,ioos:station:TCOON:057:1,2015-11-01T18:12:00Z,28.4460,-96.3961,0.0,6.2,320.0,7.3,'11111222,11111222,11111222' 
TCOON,ioos:station:TCOON:057:1,2015-11-01T18:18:00Z,28.4460,-96.3961,0.0,6.1,324.0,7.1,'11111222,11111222,11111222' 
TCOON,ioos:station:TCOON:057:1,2015-11-01T18:24:00Z,28.4460,-96.3961,0.0,6.2,328.0,6.9,'11111222,11111222,11111222' 
TCOON,ioos:station:TCOON:057:1,2015-11-01T18:30:00Z,28.4460,-96.3961,0.0,5.5,329.0,6.5,'11111222,11111222,11111222' 
TCOON,ioos:station:TCOON:057:1,2015-11-01T18:36:00Z,28.4460,-96.3961,0.0,4.9,330.0,5.7,'11111222,11111222,11111222' 
TCOON,ioos:station:TCOON:057:1,2015-11-01T18:42:00Z,28.4460,-96.3961,0.0,5.3,329.0,5.9,'11111222,11111222,11111222' 
TCOON,ioos:station:TCOON:057:1,2015-11-01T18:48:00Z,28.4460,-96.3961,0.0,5.1,331.0,6.0,'11111222,11111222,11111222' 
TCOON,ioos:station:TCOON:057:1,2015-11-01T18:54:00Z,28.4460,-96.3961,0.0,5.1,327.0,5.8,'11111222,11111222,11111222' 
TCOON,ioos:station:TCOON:057:1,2015-11-01T19:00:00Z,28.4460,-96.3961,0.0,5.9,323.0,6.4,'11111222,11111222,11111222' 
TCOON,ioos:station:TCOON:057:1,2015-11-01T19:06:00Z,28.4460,-96.3961,0.0,5.5,328.0,6.4,'11111222,11111222,11111222' 
TCOON,ioos:station:TCOON:057:1,2015-11-01T19:12:00Z,28.4460,-96.3961,0.0,5.5,328.0,6.4,'1111122,1111122,1111122' 
TCOON,ioos:station:TCOON:057:1,2015-11-01T19:18:00Z,28.4460,-96.3961,0.0,6.0,324.0,6.5,'11111222,11111222,11111222' 
TCOON,ioos:station:TCOON:057:1,2015-11-01T19:24:00Z,28.4460,-96.3961,0.0,6.3,323.0,7.2,'11111222,11111222,11111222' 
TCOON,ioos:station:TCOON:057:1,2015-11-01T19:30:00Z,28.4460,-96.3961,0.0,6.4,319.0,7.2,'11111222,11111222,11111222' 
TCOON,ioos:station:TCOON:057:1,2015-11-01T19:36:00Z,28.4460,-96.3961,0.0,5.6,322.0,6.4,'11111222,11111222,11111222' 
TCOON,ioos:station:TCOON:057:1,2015-11-01T19:42:00Z,28.4460,-96.3961,0.0,5.6,327.0,6.5,'11111222,11111222,11111222' 
TCOON,ioos:station:TCOON:057:1,2015-11-01T19:48:00Z,28.4460,-96.3961,0.0,5.9,324.0,7.3,'11111222,11111222,11111222' 
TCOON,ioos:station:TCOON:057:1,2015-11-01T19:54:00Z,28.4460,-96.3961,0.0,6.1,327.0,7.0,'11111222,11111222,11111222' 
TCOON,ioos:station:TCOON:057:1,2015-11-01T20:00:00Z,28.4460,-96.3961,0.0,7.0,327.0,7.7,'11111222,11111222,11111222' 
TCOON,ioos:station:TCOON:057:1,2015-11-01T20:06:00Z,28.4460,-96.3961,0.0,5.8,323.0,7.3,'11111222,11111222,11111222' 
TCOON,ioos:station:TCOON:057:1,2015-11-01T20:12:00Z,28.4460,-96.3961,0.0,5.8,323.0,7.3,'1111122,1111122,1111122' 
TCOON,ioos:station:TCOON:057:1,2015-11-01T20:18:00Z,28.4460,-96.3961,0.0,5.4,324.0,6.0,'11111222,11111222,11111222' 